Location: Newark
(42.8481°N, 0.4872°E)
Time: 12:51:26
(UTC+00:00)

A-11 Canister half - Pass Details

Date: 30 October 2020
Orbit: 1525 x 1684 km, 47.3° (Epoch: 01 December)

Event Time Altitude Azimuth Distance (km) Brightness Sun altitude
Rises 15:33:34 0° 260° (W) 4,779 13.0 12.2°
Reaches altitude 10° 15:36:43 10° 263° (W) 3,775 12.5 11.7°
Maximum altitude 15:46:15 73° 348° (NNW) 1,606 9.3 10.2°
Drops below altitude 10° 15:55:35 10° 73° (ENE) 3,696 10.4 8.8°
Sets 15:58:38 0° 76° (ENE) 4,676 10.9 8.3°
